Location: Unspecified
(58.9933°N, 5.6375°E)
Time: 09:25:12
(UTC+01:00)

Cosmos 2058 - Pass Details

Date: 22 January 2018
Orbit: 563 x 585 km, 82.5° (Epoch: 23 February)

Event Time Altitude Azimuth Distance (km) Brightness Sun altitude
Exits shadow 05:41:28 35° 12° (NNE) 958 4.1 -25.4°
Maximum altitude 05:42:58 55° 71° (ENE) 710 3.6 -25.2°
Drops below altitude 10° 05:47:06 10° 150° (SSE) 1,903 5.9 -24.7°
Sets 05:49:19 0° 155° (SSE) 2,796 6.7 -24.4°
